Wind_Speed
32 34 37 35 33 34 34 37 37 40 37 44 47 48 45 44 39 36 27 21 20 18 19 18 19 17 19 20 23 29 33 37 41 42 45 47 46 46 47 45 41 40 40 39
35 38 35 32 32 33 34 37 38 42 37 40 42 47 44 35 21 26 22 19 15 6 8 7 12 9 11 9 9 16 20 27 33 35 36 41 46 47 46 47 45 43 42 42
38 30 27 31 29 32 41 42 45 39 37 37 37 33 13 8 23 5 16 12 5 13 10 5 8 16 19 19 18 30 27 26 29 31 31 33 39 44 44 46 47 46 45 45
28 25 22 23 31 28 38 33 34 32 27 17 17 15 25 12 6 15 13 7 8 3 10 13 12 16 22 28 36 37 27 27 26 27 26 25 28 34 39 42 44 47 48 49
20 29 31 24 23 18 29 28 29 28 23 23 15 13 13 19 6 11 6 3 5 16 24 27 26 26 29 28 19 17 19 24 27 27 29 28 28 30 34 37 39 40 44 47
19 19 20 21 23 18 20 24 29 28 24 12 17 15 1 3 8 15 8 17 23 30 28 27 24 32 23 19 17 16 15 15 22 27 30 32 33 34 35 36 37 39 42 44
28 31 26 21 19 18 20 16 8 7 6 8 9 8 10 9 6 14 24 28 37 45 39 25 17 18 21 27 25 18 14 12 16 21 27 28 32 35 34 36 38 40 40 40
21 32 17 17 16 15 15 16 8 5 8 19 28 14 16 10 18 28 37 39 32 23 19 17 19 23 28 32 31 31 31 31 29 26 28 27 26 24 28 34 37 41 42 41
17 20 15 21 20 19 15 18 23 28 29 11 20 27 22 16 13 24 22 15 15 17 19 25 31 33 34 39 40 40 42 45 39 36 30 33 31 29 24 24 29 35 39 41
15 20 19 19 27 33 28 24 14 14 6 7 10 27 32 35 26 19 23 30 32 29 26 27 32 33 36 37 40 42 46 48 48 45 39 34 36 36 35 35 30 30 33 37
18 19 42 33 29 34 29 32 25 26 14 6 14 22 42 33 32 31 27 27 30 29 29 32 32 36 38 40 43 43 41 45 47 46 45 44 43 46 47 46 42 36 34 34
31 25 26 34 35 36 30 36 38 33 20 32 35 36 40 38 29 26 27 28 31 34 40 46 48 44 41 39 40 40 40 42 44 47 49 48 49 49 53 51 45 42 42 40
20 18 21 23 27 25 28 30 36 36 33 30 22 8 14 27 36 39 34 44 54 57 54 48 42 42 40 40 40 40 43 41 42 44 47 50 50 49 48 50 52 50 47 46
29 32 33 27 26 28 32 27 28 30 22 26 26 34 38 39 37 47 58 58 56 53 50 45 38 37 42 45 44 41 39 41 42 40 39 41 44 46 47 48 50 50 47 45
25 28 34 37 35 33 39 44 48 40 35 21 37 39 49 48 54 52 46 45 46 42 41 40 42 45 45 42 40 39 39 39 40 40 40 41 46 50 52 52 51 49 47 49
33 32 29 40 46 34 29 44 52 46 44 41 41 39 43 46 42 36 34 35 37 38 41 45 47 46 44 45 46 47 46 46 46 47 48 49 49 46 47 50 53 55 55 55
35 34 27 33 30 29 24 49 41 41 45 42 43 41 34 32 32 30 29 31 34 38 42 43 45 47 49 49 49 50 49 48 47 47 48 50 51 52 55 53 52 52 54 56
43 41 31 33 30 20 47 42 40 44 43 37 25 23 24 23 24 28 29 33 38 40 43 45 46 47 50 51 50 49 47 46 45 44 46 48 48 47 47 49 53 56 54 53
30 33 25 24 32 34 42 37 33 35 37 29 20 19 18 19 27 34 34 34 38 41 44 48 49 50 50 49 49 51 50 49 51 53 55 55 53 52 50 47 47 50 55 55
19 19 24 18 9 10 21 25 22 18 23 25 20 16 22 33 35 39 40 44 48 45 42 44 46 47 48 49 51 53 54 58 59 60 60 60 58 57 56 53 50 48 50 54
15 20 25 29 23 19 23 25 27 14 18 10 21 31 35 37 37 41 42 38 40 42 43 45 48 50 50 52 56 58 61 64 66 66 63 60 59 61 62 62 60 58 54 52
14 14 19 12 10 14 19 22 20 19 17 32 35 33 37 37 36 37 38 40 41 43 44 45 49 53 54 57 60 64 66 66 68 70 70 68 68 68 69 70 69 66 65 62
25 29 21 25 24 28 25 27 34 43 37 32 31 31 32 36 37 38 41 43 44 45 46 49 54 58 59 59 61 66 68 71 74 77 78 79 81 80 79 78 76 75 70 69
41 33 36 32 37 38 37 38 39 30 28 29 30 35 34 36 38 40 41 42 44 46 49 53 55 58 61 62 67 73 77 80 83 86 86 86 87 86 84 82 80 79 75 71
43 32 34 34 44 38 40 35 26 26 28 33 35 35 35 36 37 40 43 45 46 47 50 53 57 62 66 72 76 78 80 84 87 88 88 89 89 89 89 88 87 86 83 78
43 40 37 41 40 40 41 32 35 33 32 34 33 35 33 35 39 42 43 44 47 50 53 56 62 68 71 74 78 79 76 80 85 85 80 77 77 77 77 77 78 76 77 76
Wind_Direction
276 267 266 279 283 283 274 277 280 285 291 290 289 292 294 297 296 298 303 299 285 280 277 262 258 264 269 272 269 267 267 266 265 263 262 259 258 256 252 254 258 261 262 263
271 267 283 282 273 273 275 277 278 289 295 291 296 292 296 302 295 305 295 287 281 190 181 217 234 216 207 215 264 283 279 270 269 272 269 263 255 252 252 251 253 257 260 261
274 271 271 273 274 272 275 277 284 286 295 291 296 300 310 309 315 314 301 268 161 183 208 260 265 251 246 242 261 299 277 270 273 268 266 265 261 254 254 252 252 254 256 259
282 287 287 271 269 276 276 282 288 289 290 285 295 292 298 317 275 294 283 186 153 247 249 272 269 262 270 273 270 285 285 259 262 272 275 270 262 262 259 255 253 256 256 258
280 288 285 278 276 273 278 286 285 285 287 290 284 270 307 303 270 175 107 155 279 301 298 295 293 292 297 298 306 313 291 270 270 267 268 269 260 249 248 253 257 256 254 254
315 313 306 309 292 277 275 283 289 291 287 267 276 232 315 318 258 194 265 279 307 315 299 289 283 286 288 291 312 314 309 294 284 274 271 265 260 256 255 253 249 246 248 250
301 302 300 301 274 270 277 286 298 267 228 269 304 295 268 250 209 251 278 286 292 289 269 265 262 259 260 290 298 307 313 318 320 306 283 272 265 260 255 251 250 252 254 252
291 297 295 289 267 261 244 251 226 277 283 291 293 261 275 251 261 267 269 271 271 245 243 242 241 254 268 286 288 290 295 302 304 300 296 287 278 281 274 265 260 257 256 254
276 269 281 245 256 279 282 248 267 255 266 274 259 269 282 285 275 249 254 237 258 261 260 267 268 271 276 279 284 287 292 299 297 299 300 283 279 276 287 294 286 272 263 257
258 274 276 274 282 273 255 265 258 226 227 231 260 288 276 279 266 242 246 262 274 275 272 269 271 273 285 288 290 295 294 294 298 300 298 292 289 282 281 289 289 285 278 267
299 283 285 284 267 272 266 241 237 245 232 284 278 274 286 285 265 258 252 260 267 275 282 286 288 291 293 295 297 298 298 292 290 293 295 290 283 283 284 289 288 286 279 273
283 273 268 270 274 278 259 252 261 247 255 255 259 258 266 270 269 267 272 275 284 286 292 297 299 296 294 294 292 293 291 288 285 286 288 287 285 282 284 287 285 282 280 278
275 266 275 274 279 274 263 260 249 254 251 253 258 248 239 259 279 281 285 294 300 304 301 299 297 297 295 295 295 293 293 291 290 289 285 280 277 281 281 282 283 280 279 279
268 273 266 273 273 285 281 293 288 271 268 274 259 274 278 281 275 281 290 295 294 294 296 302 301 299 299 301 299 296 291 290 291 289 286 282 280 282 283 283 282 280 275 269
275 269 270 269 271 270 271 279 284 276 272 269 277 279 279 291 291 295 291 286 287 292 296 297 300 303 301 298 294 291 292 290 288 285 284 285 285 287 286 287 285 283 279 271
276 270 271 276 277 280 272 275 277 274 275 275 279 278 288 284 281 279 279 278 281 286 291 295 296 296 297 300 300 300 301 297 292 290 290 291 291 286 284 285 283 282 281 279
275 275 276 273 280 274 269 268 278 281 277 277 277 281 274 272 272 273 271 274 276 278 280 283 287 293 298 304 306 306 307 307 305 302 299 296 293 291 288 285 282 281 280 280
269 270 270 272 277 259 270 276 274 270 273 277 275 271 268 264 266 271 276 280 281 284 286 289 293 296 300 303 304 304 305 306 306 307 304 301 297 293 288 284 282 280 277 276
265 262 258 254 254 270 277 275 270 271 272 279 281 266 256 277 285 274 284 285 294 298 300 300 300 301 302 303 303 303 302 302 304 306 304 301 298 295 293 287 276 272 274 271
266 262 236 251 249 265 281 285 284 276 285 287 285 253 295 310 306 298 295 297 296 297 298 298 299 301 301 301 299 298 299 300 302 300 299 298 297 295 294 291 288 281 275 269
267 261 245 247 254 270 277 278 277 263 279 255 298 296 296 302 298 296 296 298 299 299 298 298 298 299 299 299 298 296 297 299 298 297 296 293 292 292 292 290 290 289 285 278
262 260 253 241 250 268 276 265 257 268 259 286 293 288 288 291 290 291 293 295 296 297 296 295 296 297 298 298 297 296 296 296 294 294 293 292 290 288 287 287 286 285 285 284
257 248 257 257 256 263 275 273 276 287 286 287 290 293 291 290 292 295 296 297 298 298 297 297 297 298 298 298 297 296 296 294 293 292 291 290 289 287 286 284 283 282 280 280
271 272 266 271 277 280 285 284 288 283 284 287 274 289 297 296 295 294 295 297 298 297 298 298 299 299 299 298 299 299 297 296 294 292 290 288 286 285 283 282 280 279 278 277
275 276 273 272 288 288 295 295 288 290 285 286 286 291 295 295 294 295 298 300 301 301 302 303 303 302 302 301 301 299 298 296 293 291 289 287 285 283 281 278 277 275 274 273
273 272 273 276 298 285 293 295 286 281 289 293 290 292 292 292 295 299 302 304 304 305 305 305 305 304 304 303 302 303 303 301 299 296 293 289 286 282 280 278 275 272 271 269
Height
3137 3134 3132 3137 3136 3132 3129 3126 3122 3123 3125 3115 3109 3105 3105 3107 3106 3103 3102 3101 3098 3099 3097 3094 3093 3091 3091 3091 3091 3091 3090 3091 3090 3092 3091 3091 3094 3095 3096 3098 3100 3100 3101 3102
3130 3125 3132 3131 3130 3128 3124 3118 3115 3114 3117 3111 3102 3094 3097 3099 3099 3098 3095 3094 3091 3093 3089 3088 3086 3083 3082 3081 3083 3083 3082 3081 3082 3083 3083 3082 3082 3084 3087 3088 3090 3091 3092 3093
3123 3124 3126 3125 3124 3124 3119 3116 3112 3108 3107 3103 3095 3087 3090 3093 3092 3090 3089 3088 3088 3087 3084 3081 3081 3081 3078 3076 3076 3076 3076 3076 3075 3073 3072 3072 3073 3074 3076 3077 3080 3081 3082 3083
3116 3116 3114 3116 3116 3119 3111 3114 3109 3104 3101 3099 3097 3083 3088 3087 3088 3086 3084 3083 3082 3080 3079 3076 3075 3075 3073 3072 3071 3068 3068 3067 3067 3067 3066 3065 3065 3067 3069 3069 3071 3072 3073 3074
3115 3111 3111 3109 3109 3112 3108 3109 3105 3101 3097 3091 3092 3089 3080 3082 3081 3083 3081 3079 3074 3073 3073 3072 3069 3066 3063 3061 3063 3063 3062 3061 3060 3059 3059 3058 3057 3054 3052 3057 3060 3061 3061 3061
3109 3108 3107 3107 3104 3104 3102 3102 3103 3097 3097 3087 3084 3083 3075 3078 3079 3081 3077 3069 3068 3066 3065 3063 3062 3060 3060 3060 3058 3055 3055 3055 3054 3053 3052 3050 3048 3047 3048 3047 3046 3044 3046 3048
3105 3102 3102 3101 3100 3101 3099 3099 3099 3092 3090 3080 3080 3079 3072 3073 3075 3074 3069 3065 3062 3062 3060 3056 3055 3057 3057 3056 3054 3052 3049 3048 3047 3046 3045 3044 3042 3040 3037 3037 3038 3037 3038 3039
3099 3092 3098 3096 3097 3096 3097 3099 3100 3091 3084 3079 3081 3069 3068 3068 3069 3066 3067 3062 3056 3055 3053 3052 3051 3051 3050 3050 3047 3044 3042 3040 3040 3038 3039 3037 3035 3034 3033 3031 3029 3028 3027 3027
3092 3087 3088 3091 3090 3093 3091 3090 3091 3088 3084 3080 3068 3061 3062 3059 3054 3057 3060 3057 3054 3052 3050 3049 3047 3045 3043 3042 3040 3039 3036 3033 3029 3029 3030 3030 3028 3027 3025 3023 3023 3021 3019 3016
3086 3083 3081 3082 3083 3081 3082 3084 3083 3082 3075 3066 3057 3055 3050 3055 3052 3050 3053 3049 3046 3043 3040 3039 3039 3036 3035 3033 3032 3030 3027 3024 3023 3022 3021 3020 3017 3016 3015 3015 3014 3012 3011 3009
3080 3080 3071 3076 3071 3073 3074 3071 3071 3070 3065 3057 3054 3044 3045 3042 3042 3037 3038 3041 3038 3036 3035 3032 3030 3030 3027 3024 3023 3021 3019 3017 3015 3014 3012 3009 3008 3005 3003 3003 3004 3003 3002 3000
3075 3072 3068 3063 3065 3065 3065 3063 3064 3059 3049 3045 3041 3033 3037 3032 3031 3029 3027 3027 3028 3029 3027 3025 3021 3019 3017 3015 3012 3011 3010 3008 3006 3004 3000 2998 2995 2994 2993 2991 2990 2990 2990 2989
3067 3063 3060 3055 3056 3053 3051 3049 3048 3047 3041 3035 3034 3028 3027 3028 3025 3021 3020 3017 3014 3013 3013 3013 3009 3005 3003 3002 3000 2997 2995 2995 2994 2992 2991 2989 2984 2981 2979 2978 2977 2975 2975 2976
3058 3055 3054 3050 3048 3049 3047 3043 3041 3039 3033 3029 3025 3023 3024 3025 3023 3018 3013 3010 3005 3002 2998 2995 2994 2993 2991 2987 2986 2985 2983 2980 2978 2977 2975 2974 2972 2969 2966 2963 2962 2961 2961 2961
3049 3045 3043 3040 3039 3037 3034 3033 3031 3026 3026 3021 3014 3012 3013 3013 3009 3005 3006 3002 2997 2992 2987 2984 2980 2979 2977 2976 2976 2974 2972 2969 2967 2964 2962 2960 2959 2957 2954 2951 2950 2946 2945 2946
3038 3034 3034 3028 3029 3027 3024 3022 3018 3016 3014 3010 3006 3001 3006 3001 2998 2997 2995 2993 2989 2984 2978 2974 2971 2969 2968 2964 2961 2960 2959 2957 2955 2951 2948 2946 2946 2945 2942 2938 2936 2934 2931 2927
3031 3028 3026 3020 3023 3020 3012 3007 3010 3005 3002 3002 2997 2996 2992 2989 2989 2988 2985 2982 2980 2977 2974 2971 2966 2962 2958 2954 2950 2945 2942 2939 2937 2936 2934 2932 2930 2927 2925 2924 2923 2920 2917 2913
3020 3019 3019 3012 3015 3003 2994 3001 2998 2993 2990 2988 2987 2985 2984 2981 2980 2979 2976 2973 2971 2968 2965 2963 2959 2955 2949 2944 2939 2934 2931 2928 2924 2922 2919 2917 2913 2911 2908 2906 2905 2901 2899 2897
3009 3010 3007 3005 2999 2988 2989 2991 2990 2986 2983 2981 2980 2978 2976 2975 2972 2971 2969 2966 2963 2960 2956 2951 2947 2943 2937 2933 2927 2921 2918 2915 2911 2907 2903 2900 2897 2894 2892 2890 2888 2884 2880 2878
3002 3000 3001 2996 2992 2983 2982 2983 2981 2979 2975 2975 2972 2971 2970 2968 2963 2961 2960 2957 2955 2951 2946 2941 2936 2931 2928 2923 2916 2910 2905 2899 2896 2892 2887 2882 2879 2876 2873 2871 2869 2866 2862 2858
2993 2992 2988 2987 2984 2978 2977 2976 2974 2975 2974 2969 2968 2966 2963 2959 2957 2952 2950 2947 2944 2940 2936 2931 2925 2920 2916 2911 2904 2898 2892 2886 2877 2872 2871 2867 2863 2858 2854 2850 2849 2844 2842 2840
2987 2985 2980 2980 2979 2974 2970 2968 2970 2967 2965 2963 2960 2957 2953 2950 2946 2944 2942 2938 2934 2929 2924 2920 2913 2908 2904 2899 2890 2882 2877 2870 2861 2853 2848 2845 2842 2839 2835 2828 2826 2826 2823 2820
2977 2972 2975 2974 2970 2965 2964 2962 2960 2959 2955 2952 2950 2947 2943 2940 2938 2934 2930 2926 2922 2917 2912 2907 2900 2893 2890 2884 2875 2865 2859 2850 2842 2835 2829 2823 2816 2812 2809 2805 2802 2799 2801 2799
2961 2963 2960 2963 2955 2954 2953 2951 2950 2947 2945 2943 2939 2936 2934 2930 2927 2924 2919 2915 2911 2906 2900 2893 2886 2879 2873 2866 2858 2847 2838 2828 2818 2809 2802 2795 2788 2784 2780 2776 2774 2772 2773 2775
2952 2954 2950 2948 2943 2943 2939 2939 2938 2937 2935 2933 2930 2927 2923 2920 2916 2912 2908 2903 2898 2892 2886 2879 2871 2863 2855 2845 2835 2825 2815 2802 2790 2780 2772 2763 2756 2751 2747 2744 2742 2741 2743 2746
2940 2939 2940 2935 2934 2935 2927 2929 2927 2925 2924 2922 2919 2916 2912 2909 2906 2901 2897 2891 2885 2879 2872 2865 2857 2846 2836 2824 2812 2800 2786 2773 2760 2748 2739 2731 2723 2718 2714 2711 2708 2711 2710 2714